Weather in Toulouse

France     43°35′32″N   1°26′28″E
temp.,
°C
wind,
m/s
gust,
m/s
humid.,
%
clouds,
%
prec.,
mm/h
press.,
hPa
HPBL,
m
18 may, tue
tue1823:00+10w487882 0.0 1022213
02:00+8wsw2287100 0.0 102243
05:00+7n008888 0.0 102113
08:00+9ene128391 0.0 1020138
11:00+12ne237296 0.0 1020576
14:00+14n4359100 0.0 1019979
17:00+9nnw3593100 1.8 1021281
20:00+9w3594100 5.2 1023298
19 may, wed
wed1923:00+8w2595100 0.1 1025121
02:00+9w2594100 0.1 1025163
05:00+9w2594100 0.0 1024152
08:00+9w3795100 0.2 1026277
11:00+13wnw57696 0.3 10261232
14:00+16wnw685392 0.4 10251849
17:00+18w7114718 0.3 10242227
20:00+15wnw6116585 0.4 1025913
20 may, thu
thu2023:00+11wnw4117391 0.0 1028383
02:00+8w378723 0.0 1029167
05:00+7w3594100 0.0 1029120
08:00+8w248970 0.0 1029194
11:00+14nw236269 0.0 1028925
14:00+17nnw234888 0.0 10261424
17:00+19n3344100 0.0 10241421
20:00+17nne225996 0.0 102480
21 may, fri
fri2123:00+13se226599 0.0 102315
02:00+10ese237576 0.0 102141
05:00+9ese388122 0.0 1020133
08:00+12se513695 0.0 1018324
11:00+18se795877 0.0 1018470
14:00+22se5648100 0.0 1016670
17:00+22se4448100 0.0 1015813
20:00+19sse486759 0.0 1014329
22 may, sat
sat2223:00+14ssw3688100 0.0 1017199
02:00+14nw4893100 0.4 1017519
05:00+10nw5994100 1.5 1020677
08:00+10wsw2494100 2.7 1021292
11:00+11wnw2281100 0.0 1021499
14:00+17nnw235592 0.0 10191448
17:00+15n2264100 0.0 1019712
20:00+16wsw116568 0.0 1018600